[[{"header":{"parameterUnit":"m.s-1","parameterCategory":1,"la1":30.2991,"la2":30.254,"lo1":-89.0895,"lo2":-89.0444,"dy":0.0017,"dx":0.0017,"nx":28,"ny":28,"refTime":"2025-03-11T09:00:00:Z","depth":0,"parameterNumber":2,"parameterNumberName":"U-component_of_WINDS"},"data":[0,0,0,0,0,0,0,0,0,0,0,0,0,0,0,0,0,0,0,0,0,0,0,0,0,0,0,0,0,0,0,0,0,0,0,0,0,0,0,0,0,0,0,0,0,0,0,0,0,0,0,0,0,0,0,0,0,0,1.5868,1.5868,0,1.5875,1.5876,1.5876,1.5854,1.5853,1.5853,1.5852,1.5859,1.586,1.5861,0,0,0,0,0,0,0,0,0,0,0,0,0,1.5835,1.5836,1.5868,1.5868,1.5868,1.5875,1.5876,1.5876,1.5854,1.5853,1.5852,1.5852,1.5859,1.586,1.5861,0,0,0,0,0,0,0,0,0,0,0,0,0,1.5847,1.5836,1.5868,1.5858,1.5857,1.5875,1.5876,1.5876,1.5854,1.5853,1.5852,1.5851,1.5859,1.586,1.5861,1.5889,0,0,1.5865,1.5866,0,0,0,0,0,0,0,0,1.5846,1.5848,1.5859,1.5859,1.5858,1.5863,1.5867,1.588,1.5855,1.5855,1.5852,1.5851,1.5861,1.5862,1.5866,1.5889,1.589,1.5865,1.5866,1.5866,1.5867,0,0,0,0,0,0,0,1.5846,1.5848,1.5871,1.586,1.5859,1.5854,1.5854,1.5869,1.5864,1.5855,1.5854,1.5855,1.5861,1.5865,1.5866,1.589,1.5865,1.5866,1.5867,1.5867,1.5938,1.5939,0,0,0,0,0,0,1.5846,1.5847,1.5871,1.5871,1.585,1.5855,1.5856,1.5862,1.5864,1.5863,1.5856,1.5854,1.5863,1.5865,1.5866,1.59,1.5866,1.5868,1.5868,1.5937,1.5938,1.5939,0,0,0,0,0,0,1.5845,1.5848,1.587,1.5859,1.5861,1.5857,1.5864,1.5863,1.5867,1.5864,1.5863,1.5861,1.5862,1.5864,1.5884,1.59,1.5868,1.5869,1.5935,1.5937,1.5939,1.5966,0,0,0,0,0,0,1.5844,1.5848,1.5858,1.5859,1.5862,1.5888,1.5865,1.5864,1.5869,1.5867,1.5869,1.5868,1.5862,1.5882,1.5885,1.5901,1.587,1.5934,1.5936,1.5938,1.5964,1.5969,1.5973,0,0,0,0,0,1.5843,1.5865,1.5859,1.5862,1.5874,1.5889,1.589,1.5883,1.587,1.5881,1.5879,1.5868,1.5897,1.5884,1.5887,1.5904,1.5933,1.5936,1.5938,1.5962,1.5968,1.5973,0,0,0,0,0,0,1.5866,1.5865,1.5858,1.5881,1.5885,1.5885,1.5898,1.5889,1.5897,1.5894,1.5884,1.5885,1.5907,1.5907,1.5892,1.5931,1.5913,1.5916,1.593,1.5936,1.594,1.594,1.5871,0,0,0,0,0,1.5873,1.5885,1.5884,1.5904,1.5906,1.5902,1.5908,1.5902,1.5906,1.5907,1.5907,1.5911,1.5922,1.5929,1.5938,1.5964,1.5965,1.5977,1.5981,1.5985,1.5988,1.6003,1.6009,1.5948,1.5948,1.5948,0,0,1.5889,1.589,1.5898,1.5908,1.5911,1.5924,1.5903,1.5917,1.5927,1.5909,1.5928,1.5928,1.5932,1.5956,1.5966,1.5957,1.6005,1.5988,1.5991,1.5992,1.6006,1.6012,1.6017,1.5949,1.5949,1.5949,0,0,1.5924,1.5926,1.5944,1.5947,1.5951,1.5949,1.5953,1.5955,1.5954,1.5973,1.5961,1.5972,1.599,1.5994,1.5998,1.6037,1.6027,1.604,1.6063,1.6078,1.6083,1.6087,1.6102,1.6107,1.6043,1.6043,1.6043,0,1.5943,1.5961,1.5954,1.5969,1.5974,1.596,1.5979,1.5982,1.5989,1.5994,1.5983,1.6007,1.6008,1.6033,1.6043,1.6046,1.6052,1.604,1.6083,1.6087,1.6091,1.6105,1.611,1.6045,1.6045,1.6045,1.6044,0,1.5985,1.5998,1.6012,1.602,1.6027,1.6044,1.6039,1.6047,1.6041,1.604,1.606,1.6062,1.6072,1.6077,1.6071,1.6102,1.6096,1.6084,1.6066,1.6098,1.6111,1.6117,1.6047,1.6047,1.6046,1.6046,0,0,1.6033,1.6038,1.6043,1.6048,1.6052,1.6062,1.6079,1.6089,1.6097,1.6103,1.6117,1.6133,1.6124,1.6129,1.6123,1.6136,1.6168,1.6123,1.6123,1.6132,1.6203,1.6212,1.6218,1.6162,1.6163,1.6163,1.6203,0,1.6068,1.6097,1.6091,1.6119,1.6132,1.612,1.6134,1.6139,1.6139,1.615,1.6149,1.6161,1.6146,1.6149,1.6162,1.6161,1.6182,1.6159,1.6175,1.6176,1.6175,1.6224,1.6233,1.627,1.6208,1.6208,1.6209,0,1.6113,1.6122,1.6151,1.6156,1.6161,1.6174,1.6184,1.6194,1.62,1.6199,1.6205,1.6198,1.6215,1.6197,1.6221,1.6205,1.6211,1.6212,1.6214,1.6215,1.6194,1.6228,1.6282,1.6288,1.6217,1.6216,1.6216,0,1.6146,1.6165,1.6186,1.619,1.6195,1.6205,1.6207,1.6212,1.6219,1.6228,1.6233,1.6243,1.6249,1.6258,1.6254,1.6241,1.6279,1.626,1.6279,1.6279,1.6287,1.6287,1.6344,1.6291,1.6291,1.6291,1.6291,0,1.6186,1.6205,1.6201,1.6214,1.6235,1.6229,1.625,1.6251,1.6256,1.6269,1.6259,1.6271,1.6265,1.6277,1.6274,1.6295,1.6297,1.6297,1.6296,1.6298,1.6298,1.6302,1.63,1.6292,1.6292,1.6292,1.6292,0,1.6227,1.6225,1.6246,1.625,1.6252,1.6267,1.6271,1.6283,1.6282,1.6299,1.6302,1.6301,1.6315,1.6312,1.6327,1.6325,1.6352,1.6348,1.635,1.6349,1.6369,1.6367,1.643,1.6439,1.638,1.6381,1.6381,0,1.6253,1.6267,1.6273,1.6281,1.6285,1.6298,1.6306,1.6301,1.6309,1.6318,1.6329,1.6343,1.6353,1.6376,1.6377,1.6389,1.6385,1.6406,1.6386,1.6389,1.6386,1.6385,1.6387,1.641,1.6411,1.6411,1.6412,0,1.6299,1.6298,1.6309,1.6321,1.6331,1.6339,1.6347,1.6355,1.635,1.636,1.6375,1.6383,1.64,1.6413,1.6425,1.6428,1.6419,1.6418,1.6423,1.6426,1.6427,1.6427,1.6361,1.6417,1.6416,1.6416,1.6415,1.6415,1.6333,1.6346,1.6353,1.6366,1.6372,1.638,1.6392,1.6393,1.6406,1.6419,1.6415,1.6432,1.6439,1.6453,1.6458,1.6471,1.6463,1.647,1.6472,1.6474,1.6477,1.6425,1.6473,1.6473,1.6473,1.6473,1.6473,0,1.638,1.6384,1.6397,1.6408,1.6419,1.6411,1.642,1.643,1.6445,1.6452,1.6463,1.648,1.6494,1.6496,1.6509,1.652,1.6517,1.6523,1.6523,1.6524,1.6483,1.6478,1.6526,1.6526,1.6526,1.6526,1.6526,1.6526,1.6405,1.6427,1.6427,1.6451,1.6455,1.6472,1.6478,1.6486,1.6491,1.6512,1.6523,1.6525,1.653,1.6544,1.6556,1.6557,1.6562,1.6571,1.657,1.6532,1.6526,1.6521,1.6516,1.6572,1.6572,1.6609,1.661,1.661]},{"header":{"parameterUnit":"m.s-1","parameterCategory":1,"la1":30.2991,"la2":30.254,"lo1":-89.0895,"lo2":-89.0444,"dy":0.0017,"dx":0.0017,"nx":28,"ny":28,"refTime":"2025-03-11T09:00:00:Z","depth":0,"parameterNumber":3,"parameterNumberName":"V-component_of_WINDS"},"data":[0,0,0,0,0,0,0,0,0,0,0,0,0,0,0,0,0,0,0,0,0,0,0,0,0,0,0,0,0,0,0,0,0,0,0,0,0,0,0,0,0,0,0,0,0,0,0,0,0,0,0,0,0,0,0,0,0,0,-0.2932,-0.2933,0,-0.2972,-0.2972,-0.2972,-0.2969,-0.2968,-0.2968,-0.2967,-0.3008,-0.301,-0.3012,0,0,0,0,0,0,0,0,0,0,0,0,0,-0.2857,-0.2858,-0.2932,-0.2933,-0.2933,-0.2971,-0.2972,-0.2973,-0.2969,-0.2968,-0.2968,-0.2967,-0.3008,-0.301,-0.3012,0,0,0,0,0,0,0,0,0,0,0,0,0,-0.2892,-0.2858,-0.2932,-0.2936,-0.2937,-0.2971,-0.2972,-0.2973,-0.2969,-0.2968,-0.2967,-0.2967,-0.3007,-0.301,-0.3012,-0.3045,0,0,-0.302,-0.3021,0,0,0,0,0,0,0,0,-0.289,-0.2895,-0.2935,-0.2936,-0.2937,-0.2964,-0.296,-0.2997,-0.2969,-0.2957,-0.2967,-0.2966,-0.2995,-0.2998,-0.3007,-0.3047,-0.3049,-0.302,-0.3021,-0.3022,-0.3023,0,0,0,0,0,0,0,-0.2888,-0.2893,-0.2948,-0.2936,-0.2937,-0.2937,-0.2941,-0.2967,-0.298,-0.2958,-0.2958,-0.2962,-0.2995,-0.3005,-0.3008,-0.305,-0.302,-0.3022,-0.3023,-0.3024,-0.312,-0.3121,0,0,0,0,0,0,-0.2884,-0.2891,-0.2947,-0.2949,-0.2911,-0.2939,-0.2943,-0.2957,-0.298,-0.2983,-0.2963,-0.2962,-0.3001,-0.3005,-0.301,-0.3051,-0.3022,-0.3025,-0.3026,-0.3119,-0.3121,-0.3122,0,0,0,0,0,0,-0.2882,-0.2889,-0.2945,-0.292,-0.2927,-0.2941,-0.2956,-0.2958,-0.2968,-0.2984,-0.2986,-0.2971,-0.3001,-0.3006,-0.3037,-0.3053,-0.3026,-0.3028,-0.3118,-0.312,-0.3121,-0.3134,0,0,0,0,0,0,-0.288,-0.2888,-0.2901,-0.292,-0.2929,-0.2971,-0.2957,-0.2959,-0.2972,-0.2971,-0.2992,-0.2995,-0.3,-0.3033,-0.3039,-0.3056,-0.303,-0.3117,-0.3119,-0.3121,-0.3132,-0.3136,-0.3139,0,0,0,0,0,-0.2878,-0.2903,-0.2901,-0.2908,-0.2944,-0.2972,-0.2977,-0.2982,-0.2973,-0.2986,-0.2997,-0.2994,-0.305,-0.3036,-0.3043,-0.306,-0.3116,-0.3118,-0.3121,-0.3131,-0.3135,-0.3139,0,0,0,0,0,0,-0.2885,-0.2905,-0.2904,-0.2936,-0.2952,-0.2971,-0.2988,-0.2987,-0.3006,-0.3004,-0.3011,-0.3016,-0.3047,-0.3057,-0.3041,-0.3095,-0.3082,-0.3086,-0.3087,-0.3092,-0.3095,-0.3092,-0.3032,0,0,0,0,0,-0.289,-0.291,-0.2927,-0.2954,-0.2962,-0.2974,-0.2986,-0.2989,-0.3006,-0.3013,-0.3026,-0.3043,-0.3064,-0.3078,-0.3099,-0.3134,-0.3139,-0.3149,-0.3152,-0.3155,-0.3159,-0.3179,-0.3184,-0.313,-0.313,-0.313,0,0,-0.2901,-0.2915,-0.2928,-0.2956,-0.2969,-0.2991,-0.2979,-0.3002,-0.3019,-0.3017,-0.3046,-0.3056,-0.3076,-0.3109,-0.3124,-0.3118,-0.3175,-0.3158,-0.316,-0.3162,-0.3182,-0.3187,-0.3192,-0.3131,-0.3131,-0.3131,0,0,-0.2933,-0.2945,-0.2969,-0.2983,-0.3002,-0.301,-0.3015,-0.3035,-0.3041,-0.3071,-0.307,-0.309,-0.3127,-0.3141,-0.3153,-0.3192,-0.319,-0.3198,-0.3216,-0.3236,-0.324,-0.3244,-0.3259,-0.3264,-0.3201,-0.3201,-0.3201,0,-0.2945,-0.2977,-0.2982,-0.3006,-0.3019,-0.3018,-0.3043,-0.3055,-0.3081,-0.309,-0.3083,-0.313,-0.3143,-0.318,-0.3189,-0.3199,-0.3207,-0.3196,-0.3239,-0.3243,-0.3247,-0.3261,-0.3266,-0.3202,-0.3202,-0.3202,-0.3202,0,-0.2991,-0.3013,-0.303,-0.3055,-0.307,-0.3094,-0.3104,-0.3119,-0.3121,-0.3129,-0.3161,-0.3176,-0.32,-0.3209,-0.3211,-0.3247,-0.3243,-0.3237,-0.3224,-0.3253,-0.3266,-0.3271,-0.3204,-0.3203,-0.3203,-0.3203,0,0,-0.3028,-0.3056,-0.3062,-0.3074,-0.3096,-0.3113,-0.3138,-0.3162,-0.3175,-0.3193,-0.3214,-0.3246,-0.3241,-0.3254,-0.3258,-0.3276,-0.3306,-0.3268,-0.3268,-0.3275,-0.3348,-0.3353,-0.3359,-0.3305,-0.3306,-0.3307,-0.3347,0,-0.3063,-0.3106,-0.3112,-0.3151,-0.3172,-0.3172,-0.3193,-0.321,-0.3218,-0.3238,-0.3248,-0.3271,-0.3262,-0.3271,-0.3288,-0.3299,-0.3321,-0.3296,-0.3326,-0.3327,-0.3322,-0.3366,-0.3371,-0.3408,-0.3352,-0.3353,-0.3354,0,-0.3109,-0.3128,-0.3169,-0.3189,-0.3198,-0.3217,-0.324,-0.3259,-0.3278,-0.3283,-0.3299,-0.3301,-0.3327,-0.3313,-0.335,-0.3333,-0.3346,-0.3354,-0.3355,-0.3359,-0.3343,-0.3372,-0.3419,-0.3425,-0.3362,-0.3361,-0.336,0,-0.3133,-0.3169,-0.3199,-0.3209,-0.3232,-0.3246,-0.3257,-0.3275,-0.3289,-0.3309,-0.3319,-0.3341,-0.3354,-0.3372,-0.3381,-0.3369,-0.3418,-0.3404,-0.3424,-0.3424,-0.3435,-0.3434,-0.3486,-0.3442,-0.3441,-0.3441,-0.3441,0,-0.3172,-0.3197,-0.321,-0.3228,-0.3257,-0.3264,-0.3292,-0.3302,-0.3319,-0.3339,-0.334,-0.336,-0.337,-0.3391,-0.3398,-0.3428,-0.3434,-0.344,-0.3441,-0.344,-0.3439,-0.3449,-0.3447,-0.3443,-0.3442,-0.3442,-0.3442,0,-0.3204,-0.3214,-0.3246,-0.3266,-0.3272,-0.3292,-0.3309,-0.3328,-0.3336,-0.3363,-0.3369,-0.3384,-0.3409,-0.3419,-0.345,-0.3455,-0.349,-0.3489,-0.3484,-0.3484,-0.3504,-0.3503,-0.3565,-0.3574,-0.3523,-0.3523,-0.3523,0,-0.3228,-0.3248,-0.327,-0.3284,-0.3295,-0.3317,-0.3332,-0.334,-0.3355,-0.3379,-0.3394,-0.342,-0.344,-0.3481,-0.3494,-0.3518,-0.3519,-0.3539,-0.3522,-0.3521,-0.352,-0.352,-0.3522,-0.3542,-0.3543,-0.3543,-0.3543,0,-0.3271,-0.3275,-0.3296,-0.3319,-0.3336,-0.3355,-0.3373,-0.3384,-0.3395,-0.3412,-0.3438,-0.3454,-0.3486,-0.3511,-0.3536,-0.3548,-0.3548,-0.3548,-0.3555,-0.3554,-0.355,-0.3554,-0.3493,-0.3547,-0.3547,-0.3547,-0.3546,-0.3546,-0.3301,-0.3319,-0.3337,-0.3361,-0.3375,-0.3392,-0.3411,-0.3422,-0.3443,-0.347,-0.3473,-0.3501,-0.3521,-0.3554,-0.3567,-0.359,-0.3585,-0.3593,-0.3596,-0.3598,-0.36,-0.3546,-0.3594,-0.3594,-0.3594,-0.3594,-0.3594,0,-0.3345,-0.3357,-0.3378,-0.3404,-0.3422,-0.342,-0.344,-0.3456,-0.3481,-0.3499,-0.3519,-0.355,-0.3575,-0.359,-0.3616,-0.3631,-0.3632,-0.3638,-0.3637,-0.364,-0.3602,-0.3595,-0.3637,-0.3637,-0.3637,-0.3637,-0.3637,-0.3637,-0.337,-0.34,-0.3406,-0.3444,-0.3456,-0.3484,-0.3495,-0.3512,-0.3526,-0.356,-0.3581,-0.359,-0.3608,-0.3635,-0.3658,-0.3662,-0.3672,-0.3678,-0.3682,-0.3647,-0.3642,-0.3638,-0.3631,-0.368,-0.368,-0.3718,-0.3718,-0.3719]}]]